CST,Max TemperatureF,Mean TemperatureF,Min TemperatureF,Max Dew PointF,MeanDew PointF,Min DewpointF,Max Humidity, Mean Humidity, Min Humidity, Max Sea Level PressureIn, Mean Sea Level PressureIn, Min Sea Level PressureIn, Max VisibilityMiles, Mean VisibilityMiles, Min VisibilityMiles, Max Wind SpeedMPH, Mean Wind SpeedMPH, Max Gust SpeedMPH,PrecipitationIn, CloudCover, Events, WindDirDegrees
2013-11-1,51,43,35,43,39,34,93,80,62,29.94,29.69,29.49,10,10,7,22,10,29,0.00,4,Rain,302
2013-11-2,55,44,32,39,35,30,93,75,44,30.07,30.03,29.94,10,10,10,13,8,18,0.00,0,,298
2013-11-3,60,48,35,37,33,27,93,61,29,30.00,29.80,29.68,10,10,10,34,15,45,0.00,0,,152
2013-11-4,51,42,33,39,33,28,93,70,43,30.14,29.88,29.69,10,10,10,21,11,26,0.01,0,Rain,254
2013-11-5,41,36,30,32,26,19,87,68,42,30.25,30.16,30.10,10,10,7,8,4,,0.00,1,Snow,338
2013-11-6,50,36,23,28,26,19,93,69,37,30.17,30.12,30.08,10,10,10,15,7,21,0.00,2,,270
2013-11-7,51,38,24,28,26,18,93,70,33,30.27,30.20,30.15,10,10,10,23,9,32,0.00,1,,272
2013-11-8,51,38,26,43,32,23,93,74,54,30.14,29.79,29.57,10,10,10,24,11,32,0.00,2,,177
2013-11-9,48,42,37,41,32,27,87,63,43,30.31,30.01,29.70,10,10,10,32,17,44,0.00,6,,305
2013-11-10,41,32,24,32,27,19,93,76,61,30.35,30.23,30.10,10,10,10,28,8,31,0.00,4,,230
2013-11-11,28,19,10,21,10,5,85,66,50,30.78,30.55,30.24,10,10,10,25,19,33,0.00,2,Snow,343
2013-11-12,39,22,6,18,9,1,85,61,22,30.79,30.63,30.32,10,10,10,14,6,17,0.00,0,,217
2013-11-13,60,44,28,36,30,18,81,61,34,30.31,29.99,29.86,10,10,10,17,10,24,0.00,0,,234
2013-11-14,55,44,32,37,34,27,87,68,47,29.86,29.82,29.80,10,10,10,21,7,28,0.00,0,,264
2013-11-15,62,42,23,37,33,21,100,69,37,29.80,29.68,29.48,10,9,0,23,7,31,0.00,0,Fog,184
2013-11-16,51,44,37,48,41,36,100,88,71,29.48,29.32,29.21,10,6,0,17,9,22,0.00,2,Fog,168
2013-11-17,48,40,33,43,36,27,100,81,70,29.94,29.59,29.33,10,9,4,21,11,28,0.00,5,,313
2013-11-18,41,32,24,27,24,18,86,70,52,30.20,30.13,29.95,10,10,7,20,11,26,0.00,2,,335
2013-11-19,57,42,26,36,29,23,87,59,36,30.16,29.86,29.69,10,10,10,26,15,32,0.00,0,,154
2013-11-20,53,42,30,34,31,25,87,60,41,30.09,29.83,29.69,10,10,7,28,14,34,0.00,1,,257
2013-11-21,28,22,17,25,15,9,93,73,59,30.62,30.41,30.10,10,10,2,29,21,36,0.00,4,Snow,338
2013-11-22,39,21,3,18,7,-8,85,64,14,30.75,30.59,30.47,10,10,10,22,10,32,0.00,1,Snow,296
2013-11-23,19,11,3,7,2,-2,85,70,49,30.91,30.80,30.63,10,10,10,18,10,22,0.00,0,,328
2013-11-24,46,27,8,30,15,1,79,56,29,30.62,30.18,29.89,10,10,10,26,13,33,0.00,0,,198
2013-11-25,42,35,28,30,26,21,86,65,49,30.16,30.03,29.89,10,10,10,21,14,28,0.00,5,,302
2013-11-26,30,21,8,21,11,5,85,62,40,30.43,30.34,30.17,10,10,10,24,17,31,0.00,1,Snow,335
2013-11-27,30,16,3,12,7,0,92,70,44,30.43,30.17,29.95,10,10,10,23,6,29,0.00,0,,157
2013-11-28,26,18,8,19,12,3,80,67,51,30.48,30.34,30.06,10,10,5,22,11,30,0.00,3,Snow,335
2013-11-29,39,24,8,21,15,3,85,67,45,30.47,30.23,30.02,10,10,10,26,8,33,0.00,0,,159
2013-11-30,39,29,19,27,23,18,93,76,56,30.21,30.09,29.99,10,10,7,15,6,18,0.00,1,,324